EW3714 Weather Reports


Display with metric or nautical units.
time (UTC)temp
F
wind
direction
speed
MPH
gust
MPH
rain 1hr
in
rain 24hr
in
rain mn
in
humidity
%
barometer
mb
20260905190943 101 146 3.0 3.0 0.00 0.00 0.00 39 1013.6
20260905190441 100 231 2.0 3.0 0.00 0.00 0.00 40 1013.8
20260905185940 97 322 0.0 2.0 0.00 0.00 0.00 44 1014.0
20260905185435 99 343 2.0 3.0 0.00 0.00 0.00 43 1014.1
20260905184933 103 359 0.0 2.0 0.00 0.00 0.00 39 1014.1
20260905184428 102 304 0.0 2.0 0.00 0.00 0.00 38 1014.0
20260905183927 101 263 1.0 1.0 0.00 0.00 0.00 38 1014.5
20260905183422 101 347 0.0 2.0 0.00 0.00 0.00 39 1014.3
20260905182917 99 326 2.0 2.0 0.00 0.00 0.00 41 1014.6
20260905182416 98 40 0.0 3.0 0.00 0.00 0.00 44 1014.5
20260905181912 96 115 2.0 2.0 0.00 0.00 0.00 45 1014.6
20260905181412 98 6 3.0 3.0 0.00 0.00 0.00 45 1014.8
20260905180911 100 315 0.0 2.0 0.00 0.00 0.00 43 1015.1
20260905180406 100 272 0.0 2.0 0.00 0.00 0.00 43 1015.1
20260905175901 100 50 0.0 2.0 0.00 0.00 0.00 45 1015.0
20260905175401 98 0 0.0 1.0 0.00 0.00 0.00 43 1015.1
20260905174901 97 284 0.0 3.0 0.00 0.00 0.00 46 1015.3
20260905174357 97 0 2.0 4.0 0.00 0.00 0.00 46 1015.5
20260905173852 96 358 2.0 2.0 0.00 0.00 0.00 46 1015.3
20260905173348 96 347 0.0 2.0 0.00 0.00 0.00 49 1015.4
20260905172843 96 206 0.0 2.0 0.00 0.00 0.00 49 1015.7
20260905172341 95 209 1.0 2.0 0.00 0.00 0.00 51 1015.7
20260905171837 95 63 0.0 2.0 0.00 0.00 0.00 51 1015.5
20260905171334 95 255 0.0 3.0 0.00 0.00 0.00 52 1015.8
20260905170830 94 219 1.0 2.0 0.00 0.00 0.00 53 1015.7
20260905170326 92 154 0.0 2.0 0.00 0.00 0.00 55 1015.7
20260905165825 90 252 0.0 2.0 0.00 0.00 0.00 58 1015.9
20260905165320 89 315 0.0 1.0 0.00 0.00 0.00 59 1015.7
20260905164820 88 293 0.0 0.0 0.00 0.00 0.00 63 1015.7
20260905164315 88 283 0.0 2.0 0.00 0.00 0.00 64 1015.8
20260905163811 88 81 2.0 5.0 0.00 0.00 0.00 63 1015.9
20260905163307 88 154 0.0 1.0 0.00 0.00 0.00 65 1015.8
20260905162802 87 183 0.0 3.0 0.00 0.00 0.00 66 1015.9
20260905162257 87 196 0.0 2.0 0.00 0.00 0.00 65 1016.0
20260905161757 87 157 0.0 3.0 0.00 0.00 0.00 65 1015.9
20260905161256 87 53 3.0 3.0 0.00 0.00 0.00 68 1015.9
20260905160754 87 353 2.0 2.0 0.00 0.00 0.00 67 1015.9
20260905160249 86 333 0.0 1.0 0.00 0.00 0.00 66 1016.0
20260905155744 86 322 2.0 4.0 0.00 0.00 0.00 66 1015.8
20260905155242 86 104 0.0 2.0 0.00 0.00 0.00 68 1015.9
20260905154737 86 7 2.0 2.0 0.00 0.00 0.00 70 1015.9
20260905154233 85 182 2.0 2.0 0.00 0.00 0.00 72 1015.8
20260905153728 85 76 0.0 2.0 0.00 0.00 0.00 73 1015.9
20260905153225 84 135 0.0 2.0 0.00 0.00 0.00 75 1015.9
20260905152724 84 108 0.0 2.0 0.00 0.00 0.00 75 1015.9
20260905152219 84 117 0.0 3.0 0.00 0.00 0.00 75 1015.9
20260905151718 84 205 0.0 1.0 0.00 0.00 0.00 75 1016.1
20260905151215 84 99 1.0 2.0 0.00 0.00 0.00 77 1015.9
20260905150709 83 117 0.0 2.0 0.00 0.00 0.00 77 1015.9
20260905150208 83 73 1.0 1.0 0.00 0.00 0.00 78 1015.9
20260905145706 83 57 1.0 1.0 0.00 0.00 0.00 79 1015.8
20260905145201 83 44 3.0 3.0 0.00 0.00 0.00 78 1015.9
20260905144700 84 16 2.0 2.0 0.00 0.00 0.00 78 1015.9
20260905144200 83 32 1.0 2.0 0.00 0.00 0.00 81 1015.7
20260905143700 82 62 0.0 2.0 0.00 0.00 0.00 81 1015.8
20260905143200 82 78 2.0 2.0 0.00 0.00 0.00 82 1015.9
20260905142658 82 94 1.0 2.0 0.00 0.00 0.00 84 1015.8
20260905142153 81 96 1.0 1.0 0.00 0.00 0.00 84 1015.9
20260905141654 81 49 1.0 2.0 0.00 0.00 0.00 85 1015.7
20260905141150 81 263 1.0 2.0 0.00 0.00 0.00 86 1015.8
20260905140646 81 19 1.0 3.0 0.00 0.00 0.00 86 1015.7
20260905140144 81 48 0.0 3.0 0.00 0.00 0.00 86 1015.6
20260905135640 81 46 2.0 2.0 0.00 0.00 0.00 87 1015.6
20260905135135 81 357 2.0 2.0 0.00 0.00 0.00 87 1015.5
20260905134629 81 269 0.0 2.0 0.00 0.00 0.00 87 1015.5
20260905134128 81 249 0.0 2.0 0.00 0.00 0.00 88 1015.6
20260905133624 80 107 2.0 2.0 0.00 0.00 0.00 88 1015.4
20260905133124 80 165 0.0 1.0 0.00 0.00 0.00 88 1015.6
20260905132624 80 269 0.0 1.0 0.00 0.00 0.00 89 1015.4
20260905132118 80 213 0.0 1.0 0.00 0.00 0.00 90 1015.2
20260905131614 80 21 0.0 1.0 0.00 0.00 0.00 90 1015.2
20260905131109 79 76 0.0 1.0 0.00 0.00 0.00 91 1015.1
20260905130609 79 89 0.0 0.0 0.00 0.00 0.00 91 1015.2
20260905125603 79 269 0.0 0.0 0.00 0.00 0.00 91 1015.1
20260905125058 79 269 0.0 0.0 0.00 0.00 0.00 92 1015.1
20260905124555 78 333 0.0 0.0 0.00 0.00 0.00 92 1014.9
20260905124051 78 309 0.0 1.0 0.00 0.00 0.00 92 1014.9
20260905123546 78 104 0.0 0.0 0.00 0.00 0.00 92 1014.9
20260905123043 78 76 0.0 1.0 0.00 0.00 0.00 92 1014.6
20260905122542 78 50 0.0 1.0 0.00 0.00 0.00 92 1014.8
20260905122037 78 257 0.0 0.0 0.00 0.00 0.00 92 1014.8
20260905121532 78 269 0.0 0.0 0.00 0.00 0.00 92 1014.6
20260905121027 78 89 0.0 0.0 0.00 0.00 0.00 92 1014.6
20260905120526 78 314 0.0 1.0 0.00 0.00 0.00 92 1014.5
20260905120022 78 339 0.0 0.0 0.00 0.00 0.00 92 1014.6
20260905115520 78 309 0.0 0.0 0.00 0.00 0.00 92 1014.4
20260905115015 78 112 0.0 1.0 0.00 0.00 0.00 92 1014.4
20260905114515 78 22 0.0 1.0 0.00 0.00 0.00 92 1014.3
20260905114014 78 25 0.0 1.0 0.00 0.00 0.00 92 1014.5
20260905113509 78 4 0.0 1.0 0.00 0.00 0.00 92 1014.3
20260905113004 78 76 0.0 0.0 0.00 0.00 0.00 91 1014.3
20260905112459 78 269 0.0 0.0 0.00 0.00 0.00 91 1014.1
20260905111954 79 104 0.0 0.0 0.00 0.00 0.00 91 1014.3
20260905111449 78 56 1.0 1.0 0.00 0.00 0.00 91 1014.2
20260905110944 78 126 0.0 1.0 0.00 0.00 0.00 91 1014.3
20260905110443 78 30 0.0 0.0 0.00 0.00 0.00 90 1014.2
20260905105943 78 92 0.0 1.0 0.00 0.00 0.00 91 1014.0
20260905105438 78 268 0.0 1.0 0.00 0.00 0.00 90 1014.2
20260905104937 78 347 0.0 2.0 0.00 0.00 0.00 91 1014.2
20260905104433 78 348 0.0 1.0 0.00 0.00 0.00 91 1014.0
20260905103932 78 310 0.0 0.0 0.00 0.00 0.00 91 1014.0
20260905103428 78 333 0.0 0.0 0.00 0.00 0.00 90 1014.0
20260905102924 78 333 0.0 1.0 0.00 0.00 0.00 90 1014.2
20260905102420 78 343 0.0 1.0 0.00 0.00 0.00 90 1014.2
20260905101915 78 89 1.0 1.0 0.00 0.00 0.00 90 1014.2
20260905101414 79 249 0.0 1.0 0.00 0.00 0.00 90 1014.2
20260905100908 79 25 0.0 1.0 0.00 0.00 0.00 90 1014.2
20260905100404 79 309 0.0 0.0 0.00 0.00 0.00 89 1014.0
20260905095903 79 6 0.0 0.0 0.00 0.00 0.00 89 1013.9
20260905095359 79 32 0.0 0.0 0.00 0.00 0.00 89 1014.0
20260905094858 79 60 0.0 0.0 0.00 0.00 0.00 89 1013.9
20260905094354 79 322 0.0 0.0 0.00 0.00 0.00 89 1013.9
20260905093852 79 333 0.0 0.0 0.00 0.00 0.00 89 1013.9
20260905093348 78 22 0.0 0.0 0.00 0.00 0.00 89 1014.0
20260905092844 79 333 0.0 1.0 0.00 0.00 0.00 89 1014.0
20260905092344 79 343 0.0 0.0 0.00 0.00 0.00 89 1014.0
20260905091839 79 37 0.0 0.0 0.00 0.00 0.00 89 1013.9
20260905091334 79 18 0.0 0.0 0.00 0.00 0.00 89 1013.9
20260905090832 79 322 0.0 0.0 0.00 0.00 0.00 88 1014.0
20260905090328 79 230 0.0 1.0 0.00 0.00 0.00 88 1013.9
20260905085827 79 62 0.0 0.0 0.00 0.00 0.00 88 1013.9
20260905085322 79 76 0.0 2.0 0.00 0.00 0.00 88 1014.1
20260905084818 79 50 0.0 0.0 0.00 0.00 0.00 87 1014.2
20260905084317 79 297 0.0 0.0 0.00 0.00 0.00 87 1014.2
20260905083812 79 322 0.0 2.0 0.00 0.00 0.00 87 1014.2
20260905083308 79 62 0.0 1.0 0.00 0.00 0.00 87 1014.1
20260905082803 80 12 1.0 1.0 0.00 0.00 0.00 87 1014.3
20260905082300 80 76 0.0 1.0 0.00 0.00 0.00 87 1014.2
20260905081759 80 62 0.0 2.0 0.00 0.00 0.00 86 1014.1
20260905081255 80 0 0.0 2.0 0.00 0.00 0.00 86 1014.4
20260905080754 80 322 0.0 1.0 0.00 0.00 0.00 85 1014.4
20260905080254 80 13 0.0 1.0 0.00 0.00 0.00 86 1014.3
20260905075753 80 50 0.0 2.0 0.00 0.00 0.00 86 1014.4
20260905075252 80 154 0.0 1.0 0.00 0.00 0.00 85 1014.4
20260905074751 80 15 0.0 3.0 0.00 0.00 0.00 85 1014.3
20260905074248 80 13 0.0 2.0 0.00 0.00 0.00 85 1014.5
20260905073743 80 15 0.0 2.0 0.00 0.00 0.00 85 1014.4
20260905073238 80 50 0.0 1.0 0.00 0.00 0.00 85 1014.3
20260905072737 80 321 0.0 0.0 0.00 0.00 0.00 84 1014.4
20260905072233 80 13 0.0 2.0 0.00 0.00 0.00 84 1014.5
20260905071729 80 352 0.0 1.0 0.00 0.00 0.00 84 1014.5
20260905071225 80 60 0.0 1.0 0.00 0.00 0.00 84 1014.6
20260905070720 80 25 0.0 1.0 0.00 0.00 0.00 83 1014.8
20260905070216 80 218 0.0 2.0 0.00 0.00 0.00 82 1014.8
20260905065714 80 6 1.0 1.0 0.00 0.00 0.00 83 1014.6
20260905065209 80 15 0.0 1.0 0.00 0.00 0.00 82 1014.8
20260905064704 81 343 0.0 2.0 0.00 0.00 0.00 82 1014.6
20260905064200 81 11 0.0 0.0 0.00 0.00 0.00 81 1014.8
20260905063658 81 135 0.0 0.0 0.00 0.00 0.00 81 1014.6
20260905063155 81 49 0.0 0.0 0.00 0.00 0.00 81 1014.5
20260905062650 81 24 0.0 0.0 0.00 0.00 0.00 81 1014.9
20260905062149 81 333 0.0 2.0 0.00 0.00 0.00 80 1014.8
20260905061644 81 22 0.0 0.0 0.00 0.00 0.00 80 1015.1
20260905061144 81 352 0.0 0.0 0.00 0.00 0.00 79 1015.0
20260905060639 81 50 0.0 0.0 0.00 0.00 0.00 79 1014.9
20260905060136 81 50 0.0 1.0 0.00 0.00 0.00 79 1014.9
20260905055634 81 7 1.0 2.0 0.00 0.00 0.00 78 1014.8
20260905055130 82 37 0.0 0.0 0.00 0.00 0.00 78 1014.9
20260905054625 82 37 0.0 1.0 0.00 0.00 0.00 77 1014.9
20260905054121 82 29 0.0 0.0 0.00 0.00 0.00 77 1014.9
20260905053620 82 66 0.0 0.0 0.00 0.00 0.00 77 1014.9
20260905053115 82 22 0.0 2.0 0.00 0.00 0.00 76 1014.9
20260905052615 82 62 0.0 1.0 0.00 0.00 0.00 76 1014.8
20260905052109 82 29 0.0 2.0 0.00 0.00 0.00 76 1015.1
20260905051605 82 5 0.0 1.0 0.00 0.00 0.00 75 1015.1
20260905051102 82 37 0.0 1.0 0.00 0.00 0.00 75 1015.0
20260905050557 82 15 0.0 0.0 0.00 0.00 0.00 75 1015.0
20260905050055 82 23 0.0 1.0 0.00 0.00 0.00 74 1015.1
20260905045554 82 44 0.0 0.0 0.00 0.00 0.00 74 1014.9
20260905045049 82 20 0.0 1.0 0.00 0.00 0.00 74 1015.0
20260905044549 82 49 0.0 1.0 0.00 0.00 0.00 74 1014.6
20260905044044 82 205 0.0 0.0 0.00 0.00 0.00 73 1015.0
20260905043543 82 333 0.0 0.0 0.00 0.00 0.00 73 1014.9
20260905043039 82 13 0.0 1.0 0.00 0.00 0.00 73 1014.9
20260905042537 82 24 0.0 0.0 0.00 0.00 0.00 73 1014.9
20260905042032 83 53 0.0 1.0 0.00 0.00 0.00 73 1014.8
20260905041528 83 200 0.0 1.0 0.00 0.00 0.00 72 1014.8
20260905041024 83 327 0.0 2.0 0.00 0.00 0.00 72 1014.8
20260905040522 83 42 0.0 1.0 0.00 0.00 0.00 73 1014.9
20260905040021 83 50 0.0 1.0 0.00 0.00 0.00 72 1014.9
20260905035517 83 322 0.0 0.0 0.00 0.00 0.00 71 1014.8
20260905035015 83 77 0.0 1.0 0.00 0.00 0.00 73 1014.9
20260905034510 83 43 0.0 1.0 0.00 0.00 0.00 71 1014.8
20260905034009 83 34 0.0 0.0 0.00 0.00 0.00 71 1014.9
20260905033509 84 33 1.0 1.0 0.00 0.00 0.00 70 1014.6
20260905033004 84 26 1.0 1.0 0.00 0.00 0.00 70 1014.6
20260905032459 84 55 0.0 0.0 0.00 0.00 0.00 70 1014.5
20260905031954 84 113 0.0 0.0 0.00 0.00 0.00 68 1014.6
20260905031450 84 62 0.0 1.0 0.00 0.00 0.00 68 1014.6
20260905030944 84 310 0.0 3.0 0.00 0.00 0.00 67 1014.4
20260905030440 84 129 0.0 1.0 0.00 0.00 0.00 67 1014.6
20260905025939 84 63 0.0 0.0 0.00 0.00 0.00 68 1014.6
20260905025434 84 154 0.0 1.0 0.00 0.00 0.00 67 1014.4
20260905024931 84 50 0.0 0.0 0.00 0.00 0.00 68 1014.3
20260905024431 84 25 0.0 1.0 0.00 0.00 0.00 69 1014.2
20260905023927 84 44 0.0 0.0 0.00 0.00 0.00 70 1014.2
20260905023422 84 34 0.0 0.0 0.00 0.00 0.00 69 1014.2
20260905022921 84 25 0.0 0.0 0.00 0.00 0.00 69 1014.1
20260905022417 84 62 0.0 0.0 0.00 0.00 0.00 68 1014.2
20260905021912 84 37 0.0 0.0 0.00 0.00 0.00 69 1014.1
20260905021411 84 44 0.0 0.0 0.00 0.00 0.00 69 1014.0
20260905020907 85 0 0.0 0.0 0.00 0.00 0.00 69 1013.9
20260905020406 85 75 0.0 0.0 0.00 0.00 0.00 69 1014.0
20260905015906 85 124 0.0 0.0 0.00 0.00 0.00 68 1013.9
20260905015404 85 62 0.0 0.0 0.00 0.00 0.00 68 1014.0
20260905014859 86 22 0.0 0.0 0.00 0.00 0.00 67 1013.8
20260905014354 86 15 0.0 0.0 0.00 0.00 0.00 67 1013.8
20260905013855 86 13 0.0 1.0 0.00 0.00 0.00 67 1013.8
20260905013352 86 333 0.0 1.0 0.00 0.00 0.00 67 1013.8
20260905012851 86 309 0.0 0.0 0.00 0.00 0.00 67 1013.7
20260905012347 86 55 0.0 1.0 0.00 0.00 0.00 66 1013.6
20260905011844 86 309 0.0 1.0 0.00 0.00 0.00 66 1013.6
20260905011339 87 348 0.0 1.0 0.00 0.00 0.00 65 1013.6
20260905010835 87 76 0.0 1.0 0.00 0.00 0.00 66 1013.5
20260905010329 87 315 0.0 0.0 0.00 0.00 0.00 64 1013.4
20260905005826 87 25 0.0 1.0 0.00 0.00 0.00 65 1013.4
20260905005322 87 199 0.0 2.0 0.00 0.00 0.00 64 1013.2
20260905004822 88 336 0.0 0.0 0.00 0.00 0.00 64 1013.3
20260905004316 88 333 0.0 0.0 0.00 0.00 0.00 63 1013.1
20260905003812 88 195 0.0 2.0 0.00 0.00 0.00 62 1013.1
20260905003308 88 19 0.0 2.0 0.00 0.00 0.00 61 1013.1
20260905002803 89 352 0.0 1.0 0.00 0.00 0.00 59 1013.0
20260905002306 89 315 0.0 2.0 0.00 0.00 0.00 59 1013.0
20260905001758 89 263 1.0 1.0 0.00 0.00 0.00 58 1012.9
20260905001257 89 293 0.0 2.0 0.00 0.00 0.00 58 1012.9
20260905000753 89 336 0.0 1.0 0.00 0.00 0.00 58 1013.1
20260905000248 90 0 0.0 0.0 0.00 0.00 0.00 57 1013.0
20260904235744 90 22 0.0 1.0 0.00 0.00 0.00 57 1012.8
20260904235243 90 24 1.0 2.0 0.00 0.00 0.00 57 1012.8
20260904234738 90 203 0.0 3.0 0.00 0.00 0.00 57 1012.9
20260904234234 90 192 1.0 2.0 0.00 0.00 0.00 57 1012.9
20260904233729 90 223 1.0 2.0 0.00 0.00 0.00 57 1012.7
20260904233226 90 220 0.0 0.0 0.00 0.00 0.00 57 1012.9
20260904232722 90 185 0.0 1.0 0.00 0.00 0.00 58 1012.7
20260904232218 90 352 0.0 4.0 0.00 0.00 0.00 58 1013.1
20260904231713 91 241 1.0 2.0 0.00 0.00 0.00 56 1012.8
20260904231209 92 226 0.0 2.0 0.00 0.00 0.00 55 1012.8
20260904230708 92 166 0.0 2.0 0.00 0.00 0.00 55 1012.9
20260904230203 93 329 0.0 1.0 0.00 0.00 0.00 56 1012.9
20260904225702 94 280 0.0 2.0 0.00 0.00 0.00 54 1013.0
20260904225156 94 299 0.0 2.0 0.00 0.00 0.00 53 1012.7
20260904224650 95 216 0.0 2.0 0.00 0.00 0.00 47 1012.9
20260904224151 95 195 2.0 2.0 0.00 0.00 0.00 47 1012.7
20260904223650 94 7 2.0 2.0 0.00 0.00 0.00 48 1012.7
20260904223145 95 3 1.0 2.0 0.00 0.00 0.00 49 1013.0
20260904222641 94 135 0.0 2.0 0.00 0.00 0.00 47 1012.9
20260904222137 95 343 0.0 2.0 0.00 0.00 0.00 46 1012.7
20260904221636 95 26 0.0 2.0 0.00 0.00 0.00 47 1012.8
20260904221131 94 324 1.0 1.0 0.00 0.00 0.00 47 1012.9
20260904220626 93 89 0.0 2.0 0.00 0.00 0.00 46 1012.9
20260904220122 94 304 0.0 1.0 0.00 0.00 0.00 44 1013.0
20260904215621 94 208 1.0 3.0 0.00 0.00 0.00 43 1013.2
20260904215118 94 0 0.0 1.0 0.00 0.00 0.00 46 1013.1
20260904214617 94 235 0.0 2.0 0.00 0.00 0.00 47 1013.3
20260904214113 93 202 0.0 3.0 0.00 0.00 0.00 49 1013.3
20260904213611 94 210 1.0 3.0 0.00 0.00 0.00 49 1013.4
20260904213108 95 351 1.0 3.0 0.00 0.00 0.00 50 1013.4
20260904212608 94 326 0.0 3.0 0.00 0.00 0.00 51 1013.4
20260904212103 94 320 1.0 2.0 0.00 0.00 0.00 51 1013.6
20260904211602 93 13 2.0 3.0 0.00 0.00 0.00 50 1013.7
20260904211058 93 31 0.0 4.0 0.00 0.00 0.00 50 1013.5
20260904210557 94 0 2.0 3.0 0.00 0.00 0.00 53 1013.6
20260904210053 95 289 0.0 3.0 0.00 0.00 0.00 51 1013.7
20260904205548 96 14 1.0 2.0 0.00 0.00 0.00 49 1013.8
20260904205045 96 311 0.0 3.0 0.00 0.00 0.00 48 1013.9
20260904204541 96 296 0.0 3.0 0.00 0.00 0.00 47 1014.0
20260904204036 96 240 0.0 2.0 0.00 0.00 0.00 45 1013.8
20260904203532 96 95 1.0 2.0 0.00 0.00 0.00 45 1014.0
20260904203028 96 243 1.0 1.0 0.00 0.00 0.00 46 1014.2
20260904202524 94 257 1.0 2.0 0.00 0.00 0.00 48 1014.4
20260904202020 94 246 0.0 2.0 0.00 0.00 0.00 48 1014.5
20260904201515 93 214 0.0 2.0 0.00 0.00 0.00 48 1014.5
20260904201011 94 346 1.0 2.0 0.00 0.00 0.00 48 1014.4
20260904200509 94 217 0.0 2.0 0.00 0.00 0.00 51 1014.5
20260904200004 94 268 1.0 2.0 0.00 0.00 0.00 54 1014.5
20260904195502 93 218 0.0 3.0 0.00 0.00 0.00 57 1014.8
20260904195001 93 279 2.0 2.0 0.00 0.00 0.00 58 1014.8
20260904194457 90 298 1.0 2.0 0.00 0.00 0.00 62 1014.6
20260904193951 90 104 0.0 3.0 0.00 0.00 0.00 65 1014.8
20260904193447 89 201 0.0 2.0 0.00 0.00 0.00 65 1014.8
20260904192942 89 279 0.0 1.0 0.00 0.00 0.00 66 1014.9
20260904192437 88 63 0.0 1.0 0.00 0.00 0.00 67 1014.8
20260904191933 88 15 0.0 1.0 0.00 0.00 0.00 67 1015.0
20260904191430 88 339 0.0 1.0 0.00 0.00 0.00 67 1015.1